Regional Weather Roundup
Issued by NWS Albany, NY

Home | Current Version | Previous Version | Text Only | Print | Product List | Glossary On
Versions: 1 2 3 4 5 6 7 8 9 10 11 12 13 14 15 16 17 18 19 20 21 22 23 24 25 26 27 28 29 30 31 32 33 34 35 36 37 38 39 40 41 42 43 44 45 46 47 48 49
000
ASUS41 KALY 030110
RWRALY

NEW YORK STATE HOURLY WEATHER ROUNDUP
NATIONAL WEATHER SERVICE ALBANY NY
900 PM EDT SUN AUG 02 2015

NOTE: "FAIR" INDICATES FEW OR NO CLOUDS BELOW 12,000 FEET WITH NO
SIGNIFICANT WEATHER AND/OR NO OBSTRUCTIONS TO VISIBILITY.

NYZ032-033-038>043-046>054-057>066-NYZ062>081-030200-
EAST


CITY           SKY/WX    TMP DP  RH WIND       PRES   REMARKS
ALBANY         PTCLDY    79  56  45 S7        29.84S
GLENS FALLS    CLEAR     73  61  65 S7        29.81F
POUGHKEEPSIE   CLEAR     76  58  53 CALM      29.86S
NEWBURGH       CLEAR     79  57  47 W6        29.89F
MONTGOMERY     CLEAR     71  61  70 CALM      29.88S
WHITE PLAINS   CLEAR     76  60  57 CALM      29.90R
ISLIP          PTCLDY    76  67  73 SW7       29.89R
NEW YORK CITY  PTCLDY    80  63  55 S9        29.88R
CENTRAL PARK   CLEAR     79  61  53 CALM      29.91R
$$

NYZ005>009-017-018-044>046-055-056-030200-
CENTRAL


CITY           SKY/WX    TMP DP  RH WIND       PRES   REMARKS
FULTON         MOCLDY    69  60  73 CALM      29.77F
SYRACUSE       CLOUDY    77  56  48 SE5       29.76F
ROME           MOCLDY    72  58  61 E6        29.80F
ELMIRA         PTCLDY    70  61  73 W5        29.81F
BINGHAMTON     PTCLDY    71  57  61 S6        29.87F
MONTICELLO     CLEAR     72  57  60 SW6       29.93F
$$

NYZ026>034-041>043-030200-
NORTH


CITY           SKY/WX    TMP DP  RH WIND       PRES   REMARKS
WATERTOWN      CLOUDY    73  58  59 SW6       29.76F
FORT DRUM      NOT AVBL
MASSENA        CLOUDY    73  59  61 S9        29.72F
SARANAC LAKE   PTCLDY    66  54  65 SW6       29.81F
PLATTSBURGH    CLEAR     71  62  73 SW3       29.75F
$$

NYZ001>004-010>016-019>021-030200-
WEST


CITY           SKY/WX    TMP DP  RH WIND       PRES   REMARKS
NIAGARA FALLS  CLOUDY    74  63  68 S7        29.70F
BUFFALO        CLOUDY    78  60  53 SE8       29.73F
DUNKIRK        PTCLDY    79  61  53 S14       29.73F
JAMESTOWN      PTCLDY    73  57  56 S9        29.84F
WELLSVILLE     CLEAR     73  56  54 SW7       29.89S
ROCHESTER      CLOUDY    73  58  59 SE6       29.75F
PENN YAN       MOCLDY    74  59  59 S6        29.80F
$$

             KEY
       WCI = WIND CHILL INDEX
       VSB = VISIBILITY
       HX  = HEAT INDEX
$$



USA.gov is the U.S. government's official web portal to all federal, state and local government web resources and services.